[[{"header":{"parameterUnit":"m.s-1","parameterCategory":1,"la1":30.2991,"la2":30.254,"lo1":-89.0895,"lo2":-89.0444,"dy":0.0017,"dx":0.0017,"nx":28,"ny":28,"refTime":"2024-04-29T09:00:00:Z","depth":0,"parameterNumber":2,"parameterNumberName":"U-component_of_WINDS"},"data":[0,0,0,0,0,0,0,0,0,0,0,0,0,0,0,0,0,0,0,0,0,0,0,0,0,0,0,0,0,0,0,0,0,0,0,0,0,0,0,0,0,0,0,0,0,0,0,0,0,0,0,0,0,0,0,0,0,0,1.1583,1.1584,0,1.1633,1.1634,1.1634,1.17,1.1702,1.1703,1.1704,1.1754,1.1754,1.1755,0,0,0,0,0,0,0,0,0,0,0,0,0,1.1549,1.1549,1.1583,1.1584,1.1585,1.1633,1.1634,1.1634,1.17,1.1702,1.1703,1.1704,1.1754,1.1754,1.1755,0,0,0,0,0,0,0,0,0,0,0,0,0,1.1578,1.1549,1.1583,1.1623,1.1628,1.1633,1.1634,1.1634,1.17,1.1702,1.1703,1.1705,1.1754,1.1754,1.1755,1.1725,0,0,1.1756,1.1756,0,0,0,0,0,0,0,0,1.1576,1.1579,1.1617,1.1621,1.1625,1.1662,1.164,1.1665,1.17,1.1672,1.1704,1.1706,1.1722,1.1725,1.1731,1.1727,1.1729,1.1756,1.1756,1.1757,1.1757,0,0,0,0,0,0,0,1.1574,1.1577,1.1603,1.1617,1.1623,1.164,1.1646,1.1645,1.1687,1.1675,1.168,1.1685,1.1725,1.173,1.1733,1.173,1.1756,1.1757,1.1757,1.1757,1.1708,1.1707,0,0,0,0,0,0,1.1566,1.1575,1.1602,1.1605,1.1604,1.1639,1.1646,1.1649,1.1688,1.1695,1.1683,1.1688,1.1729,1.1732,1.1735,1.1705,1.1757,1.1757,1.1757,1.171,1.1708,1.1706,0,0,0,0,0,0,1.1565,1.1567,1.16,1.1591,1.1597,1.1638,1.1641,1.1649,1.1654,1.1694,1.1702,1.1681,1.173,1.1734,1.1728,1.1707,1.1757,1.1758,1.1712,1.1709,1.1707,1.1642,0,0,0,0,0,0,1.1563,1.1567,1.1554,1.159,1.1597,1.159,1.1639,1.1649,1.1655,1.1661,1.1694,1.1701,1.1732,1.1727,1.1728,1.1709,1.1758,1.1714,1.1711,1.1708,1.1646,1.1638,1.1631,0,0,0,0,0,1.1562,1.1533,1.1553,1.1556,1.1582,1.1589,1.1593,1.1629,1.1653,1.1642,1.1669,1.17,1.1709,1.1725,1.1728,1.1708,1.1715,1.1711,1.1708,1.165,1.164,1.1631,0,0,0,0,0,0,1.1493,1.1539,1.1561,1.1544,1.1562,1.16,1.1587,1.1616,1.1628,1.1633,1.1678,1.1684,1.1673,1.169,1.1707,1.1683,1.1717,1.1714,1.1672,1.1663,1.1655,1.1651,1.1759,0,0,0,0,0,1.1476,1.1477,1.1517,1.1497,1.1506,1.1545,1.1549,1.1576,1.1596,1.1604,1.163,1.1649,1.1657,1.1661,1.167,1.165,1.1659,1.1638,1.163,1.1623,1.162,1.1614,1.1606,1.1695,1.1695,1.1695,0,0,1.144,1.1465,1.1463,1.1484,1.1502,1.1503,1.1551,1.1549,1.1551,1.1604,1.16,1.162,1.1645,1.1632,1.1628,1.1646,1.1598,1.1619,1.1613,1.1614,1.161,1.1601,1.1594,1.1692,1.1693,1.1693,0,0,1.1375,1.1394,1.1381,1.1398,1.1425,1.1452,1.1449,1.1484,1.1499,1.1496,1.1537,1.1541,1.1552,1.1569,1.1579,1.1526,1.1557,1.1528,1.1487,1.1481,1.1474,1.1468,1.1451,1.1444,1.1525,1.1525,1.1525,0,1.1327,1.133,1.1371,1.1368,1.1377,1.1427,1.1416,1.1431,1.1458,1.1464,1.1485,1.1503,1.1523,1.1517,1.1504,1.151,1.151,1.1524,1.1472,1.1466,1.1461,1.1446,1.1439,1.1521,1.1521,1.1522,1.1522,0,1.1272,1.1273,1.126,1.1288,1.1296,1.1288,1.1329,1.1333,1.136,1.1385,1.1383,1.141,1.1427,1.1427,1.1452,1.1426,1.1437,1.1463,1.1498,1.1448,1.1435,1.1429,1.1516,1.1517,1.1518,1.1519,0,0,1.1162,1.1215,1.1209,1.1224,1.1259,1.1262,1.1258,1.1276,1.1279,1.1298,1.1297,1.1308,1.1334,1.1346,1.1374,1.1369,1.1328,1.1397,1.1398,1.1385,1.1304,1.1283,1.1276,1.1349,1.1348,1.1347,1.1302,0,1.1105,1.1102,1.114,1.1127,1.1131,1.118,1.1178,1.12,1.1224,1.1232,1.126,1.1268,1.1301,1.1309,1.1305,1.1334,1.1313,1.1338,1.135,1.135,1.1343,1.1268,1.1246,1.1202,1.1297,1.1296,1.1295,0,1.1038,1.1055,1.1042,1.1081,1.1084,1.1081,1.1102,1.1109,1.1136,1.1155,1.117,1.1203,1.1204,1.1238,1.1242,1.1258,1.1266,1.1281,1.1281,1.1283,1.1319,1.127,1.1188,1.1182,1.1287,1.1287,1.1288,0,1.0962,1.0981,1.0977,1.0988,1.1033,1.103,1.1049,1.1078,1.1087,1.1106,1.1113,1.1131,1.1141,1.1156,1.1194,1.1215,1.1195,1.1231,1.1211,1.121,1.1204,1.1204,1.1123,1.1208,1.1208,1.1208,1.1208,0,1.0894,1.0885,1.0944,1.0941,1.0934,1.0979,1.097,1.0994,1.102,1.1024,1.1068,1.1071,1.1122,1.1131,1.1161,1.1162,1.1165,1.1182,1.119,1.1178,1.1176,1.1184,1.1188,1.1207,1.1207,1.1207,1.1208,0,1.0807,1.0846,1.0845,1.0889,1.09,1.0893,1.0931,1.0931,1.096,1.0965,1.0969,1.1014,1.1028,1.1069,1.1092,1.1113,1.1105,1.1119,1.1095,1.1101,1.108,1.1081,1.1001,1.0994,1.1082,1.1081,1.1081,0,1.0761,1.0756,1.08,1.0807,1.0824,1.0833,1.0844,1.0889,1.0899,1.0932,1.0929,1.0947,1.0963,1.0984,1.1019,1.1038,1.1055,1.1026,1.1058,1.1047,1.1056,1.1056,1.1057,1.1018,1.1017,1.1016,1.1015,0,1.0677,1.0698,1.0711,1.0732,1.0744,1.0763,1.0784,1.0787,1.0839,1.0848,1.0863,1.0876,1.0902,1.092,1.0946,1.0966,1.1,1.1005,1.1002,1.099,1.0976,1.0985,1.1077,1.1006,1.1007,1.1008,1.1008,1.1009,1.061,1.0609,1.0641,1.0656,1.0677,1.0697,1.0701,1.0731,1.0745,1.077,1.0797,1.081,1.0841,1.0879,1.0898,1.091,1.0928,1.0922,1.0921,1.0919,1.0915,1.0975,1.0915,1.0915,1.0916,1.0916,1.0916,0,1.0529,1.0553,1.0567,1.0596,1.0609,1.0641,1.0667,1.0675,1.0686,1.0713,1.073,1.0749,1.0768,1.0806,1.0829,1.0831,1.0847,1.0835,1.0836,1.0841,1.0897,1.0898,1.0822,1.0822,1.0822,1.0822,1.0822,1.0822,1.0488,1.0489,1.0514,1.0527,1.0551,1.0565,1.0578,1.0597,1.0619,1.0639,1.0655,1.0681,1.0713,1.0739,1.0758,1.077,1.0776,1.0759,1.0775,1.0827,1.0836,1.0845,1.0846,1.076,1.076,1.0718,1.0718,1.0718]},{"header":{"parameterUnit":"m.s-1","parameterCategory":1,"la1":30.2991,"la2":30.254,"lo1":-89.0895,"lo2":-89.0444,"dy":0.0017,"dx":0.0017,"nx":28,"ny":28,"refTime":"2024-04-29T09:00:00:Z","depth":0,"parameterNumber":3,"parameterNumberName":"V-component_of_WINDS"},"data":[0,0,0,0,0,0,0,0,0,0,0,0,0,0,0,0,0,0,0,0,0,0,0,0,0,0,0,0,0,0,0,0,0,0,0,0,0,0,0,0,0,0,0,0,0,0,0,0,0,0,0,0,0,0,0,0,0,0,3.5659,3.5661,0,3.5797,3.5798,3.58,3.5822,3.582,3.5819,3.5818,3.5956,3.5961,3.5966,0,0,0,0,0,0,0,0,0,0,0,0,0,3.5411,3.5415,3.5659,3.5661,3.5663,3.5796,3.5798,3.58,3.5822,3.582,3.5819,3.5818,3.5955,3.596,3.5966,0,0,0,0,0,0,0,0,0,0,0,0,0,3.553,3.5417,3.5659,3.569,3.5694,3.5796,3.5798,3.5801,3.5822,3.582,3.5819,3.5817,3.5953,3.596,3.5967,3.6048,0,0,3.5989,3.5992,0,0,0,0,0,0,0,0,3.5523,3.5539,3.5683,3.5688,3.5692,3.579,3.5761,3.5883,3.5823,3.5773,3.5818,3.5816,3.5902,3.5914,3.5943,3.6054,3.606,3.599,3.5994,3.5997,3.5999,0,0,0,0,0,0,0,3.5515,3.5534,3.5713,3.5685,3.5691,3.5695,3.571,3.5785,3.5846,3.5777,3.5779,3.5795,3.5904,3.5936,3.5947,3.6062,3.5989,3.5996,3.6,3.6003,3.6241,3.6243,0,0,0,0,0,0,3.5502,3.5527,3.5709,3.5718,3.5602,3.5701,3.5718,3.5761,3.5845,3.5857,3.5797,3.5796,3.5925,3.5938,3.5952,3.6048,3.5997,3.6004,3.6008,3.6239,3.6242,3.6244,0,0,0,0,0,0,3.5496,3.5518,3.5704,3.5623,3.5647,3.5707,3.5755,3.5764,3.5796,3.586,3.5871,3.5818,3.5924,3.5941,3.6023,3.6054,3.6007,3.6014,3.6237,3.624,3.6243,3.6245,0,0,0,0,0,0,3.5489,3.5516,3.5548,3.5623,3.5651,3.5774,3.5757,3.5768,3.5809,3.5809,3.5883,3.5894,3.5924,3.6012,3.603,3.6063,3.6019,3.6234,3.6238,3.6242,3.6242,3.6247,3.6252,0,0,0,0,0,3.548,3.5544,3.555,3.5572,3.5693,3.5776,3.5791,3.5826,3.5811,3.5843,3.5884,3.5891,3.6048,3.602,3.6041,3.6076,3.6232,3.6237,3.6241,3.624,3.6246,3.6252,0,0,0,0,0,0,3.5471,3.5554,3.5562,3.5652,3.5707,3.5779,3.5821,3.5832,3.5891,3.5889,3.5928,3.5944,3.6023,3.6058,3.6025,3.6156,3.6139,3.6147,3.613,3.6137,3.6142,3.6131,3.6025,0,0,0,0,0,3.548,3.5541,3.561,3.5683,3.571,3.576,3.5798,3.5819,3.5877,3.59,3.5947,3.6001,3.6062,3.6102,3.6162,3.6247,3.6262,3.6282,3.6286,3.629,3.6297,3.634,3.6349,3.6258,3.6258,3.6258,0,0,3.5498,3.5551,3.5587,3.5682,3.5727,3.5787,3.578,3.5845,3.589,3.591,3.5989,3.6024,3.6088,3.617,3.6209,3.6202,3.6325,3.6296,3.6298,3.6303,3.6346,3.6354,3.6362,3.6262,3.6261,3.626,0,0,3.5561,3.5609,3.5673,3.5717,3.5785,3.5818,3.5833,3.5904,3.5928,3.6008,3.6023,3.6076,3.6182,3.6225,3.6261,3.6337,3.6345,3.6356,3.6381,3.6423,3.643,3.6436,3.6461,3.6469,3.6362,3.6362,3.6362,0,3.5575,3.5668,3.5704,3.5768,3.5808,3.5829,3.5892,3.5933,3.6017,3.6043,3.6034,3.6164,3.6209,3.63,3.6318,3.6348,3.6364,3.6347,3.6426,3.6433,3.644,3.6463,3.6472,3.6363,3.6363,3.6363,3.6363,0,3.568,3.5744,3.5787,3.5867,3.5912,3.5975,3.6019,3.6059,3.6076,3.6109,3.6188,3.6242,3.6311,3.6335,3.6353,3.6428,3.6421,3.6419,3.6401,3.6448,3.6471,3.648,3.6364,3.6364,3.6364,3.6363,0,0,3.5742,3.5839,3.5854,3.5889,3.5964,3.6013,3.6076,3.6144,3.6177,3.6233,3.6285,3.6372,3.637,3.641,3.6432,3.647,3.6522,3.6463,3.6465,3.647,3.6605,3.6604,3.6614,3.6529,3.6531,3.6532,3.6598,0,3.5812,3.5926,3.5959,3.6054,3.6111,3.613,3.6184,3.6235,3.6267,3.6319,3.6354,3.6414,3.6408,3.6432,3.647,3.6508,3.655,3.6504,3.6575,3.6577,3.6556,3.6626,3.6627,3.6687,3.6608,3.6609,3.661,0,3.5909,3.5966,3.6067,3.6131,3.6157,3.6205,3.6268,3.6319,3.6375,3.6396,3.6439,3.6458,3.6521,3.6501,3.6588,3.6556,3.6586,3.6609,3.6612,3.6619,3.6595,3.6632,3.6707,3.6715,3.6625,3.6624,3.6623,0,3.594,3.6043,3.6115,3.6145,3.6223,3.6255,3.6289,3.6344,3.6382,3.6437,3.6461,3.6522,3.6556,3.6602,3.6635,3.6618,3.6717,3.6701,3.6734,3.6733,3.6753,3.6751,3.6831,3.6776,3.6776,3.6776,3.6776,0,3.6014,3.6074,3.613,3.6174,3.6241,3.6277,3.6341,3.6376,3.6424,3.6473,3.6494,3.654,3.6582,3.6633,3.6659,3.6725,3.674,3.6757,3.6762,3.6754,3.6751,3.6773,3.6769,3.6778,3.6778,3.6777,3.6777,0,3.606,3.61,3.618,3.6246,3.6264,3.631,3.6366,3.6408,3.644,3.6503,3.6519,3.6569,3.6629,3.6668,3.6745,3.6762,3.6833,3.6839,3.6814,3.6816,3.6846,3.6842,3.6942,3.6955,3.6893,3.6893,3.6894,0,3.6103,3.6149,3.622,3.6255,3.6289,3.6345,3.6383,3.642,3.6458,3.6524,3.6558,3.662,3.6671,3.6766,3.6808,3.6866,3.6872,3.6903,3.6881,3.6869,3.6869,3.6865,3.6868,3.6906,3.6907,3.6907,3.6907,0,3.6174,3.6191,3.6246,3.6307,3.6352,3.6401,3.6451,3.6478,3.6522,3.6564,3.6626,3.6666,3.6744,3.6804,3.6865,3.6898,3.6909,3.6914,3.6924,3.6915,3.6897,3.6904,3.6821,3.6911,3.6911,3.6911,3.691,3.691,3.6218,3.6259,3.6314,3.6373,3.6414,3.6459,3.6502,3.6538,3.6591,3.6657,3.6676,3.6739,3.6792,3.6875,3.6909,3.6958,3.6954,3.6969,3.6973,3.6975,3.6974,3.6891,3.697,3.6969,3.6969,3.6969,3.6969,0,3.6288,3.6324,3.6378,3.6446,3.6492,3.6499,3.6554,3.6591,3.6647,3.6696,3.6745,3.6814,3.6872,3.6918,3.6977,3.7007,3.7013,3.7021,3.7018,3.7024,3.6976,3.696,3.7014,3.7014,3.7014,3.7014,3.7014,3.7014,3.6329,3.6397,3.642,3.6508,3.6544,3.6607,3.6637,3.6677,3.6716,3.6792,3.684,3.687,3.6916,3.6978,3.703,3.7042,3.7061,3.7067,3.708,3.7033,3.7028,3.7023,3.7009,3.7072,3.7072,3.7124,3.7124,3.7125]}]]